Weather History for Crystal River, FL

Change the Weather History Date:

Wednesday, January 30, 2013

  Actual Average (KBKV) Record (KBKV)
Temperature  
Mean Temperature 70 °F -  
Max Temperature 82 °F 67 °F 84 °F (2002)
Min Temperature 55 °F 44 °F 30 °F (2007)
Cooling Degree Days 6    
Growing Degree Days 20 (Base 50)    
Moisture  
Dew Point 63 °F    
Average Humidity 75    
Maximum Humidity 100    
Minimum Humidity 51    
Precipitation  
Precipitation 0.01 in - - ()
Sea Level Pressure  
Sea Level Pressure 29.97 in    
Wind  
Wind Speed 5 mph (South)    
Max Wind Speed 21 mph    
Max Gust Speed 37 mph    
Visibility 10 miles    
Events Rain    
Averages and records for this station are not official NWS values.
T = Trace of Precipitation, MM = Missing Value Source: NWS Daily Summary

Daily Weather History Graph

Daily Weather History Graph

Search for Another Location

Airport:

Trip Planner

Search our weather history database for the weather conditions in past years. The results will help you decide how hot, cold, wet, or windy it might be!

Date:

Astronomy

Jan. 30, 2013 Rise Set
Actual Time 7:19 AM EST 6:07 PM EST
Civil Twilight 6:54 AM EST 6:32 PM EST
Nautical Twilight 6:26 AM EST 7:01 PM EST
Astronomical Twilight 5:58 AM EST 7:29 PM EST
Moon 9:41 PM EST (1/30) 9:08 AM EST (1/30)
Length of Visible Light 11h 37m
Length of Day
10h 48m
Waning Gibbous, 88% of the Moon is Illuminated
Jan 30
Waning Gibbous
Feb 3
Last Quarter
Feb 10
New
Feb 17
First Quarter
Feb 25
Full

Hourly Weather History & Observations

Time (EST) Temp. Heat Index Dew Point Humidity Pressure Visibility Wind Dir Wind Speed Gust Speed Precip Events Conditions
12:15 AM 69.8 °F - 64.4 °F 83% 30.10 in 10.0 mi Calm Calm - N/A   Overcast
12:35 AM 69.8 °F - 66.2 °F 88% 30.10 in 10.0 mi Calm Calm - N/A   Mostly Cloudy
1:35 AM 68.0 °F - 68.0 °F 100% 30.09 in 10.0 mi Calm Calm - N/A   Mostly Cloudy
1:55 AM 69.8 °F - 68.0 °F 94% 30.09 in 10.0 mi ESE 4.6 mph - N/A   Overcast
2:15 AM 69.8 °F - 68.0 °F 94% 30.09 in 10.0 mi SE 4.6 mph - N/A   Overcast
2:35 AM 69.8 °F - 66.2 °F 88% 30.08 in 10.0 mi SE 3.5 mph - N/A   Scattered Clouds
2:55 AM 69.8 °F - 66.2 °F 88% 30.08 in 10.0 mi SE 4.6 mph - N/A   Clear
3:15 AM 68.0 °F - 64.4 °F 88% 30.07 in 10.0 mi Calm Calm - N/A   Scattered Clouds
3:35 AM 68.0 °F - 64.4 °F 88% 30.07 in 10.0 mi Calm Calm - N/A   Scattered Clouds
3:55 AM 68.0 °F - 64.4 °F 88% 30.06 in 10.0 mi ESE 3.5 mph - N/A   Clear
4:15 AM 66.2 °F - 64.4 °F 94% 30.06 in 10.0 mi ESE 3.5 mph - N/A   Clear
4:35 AM 66.2 °F - 64.4 °F 94% 30.05 in 10.0 mi ESE 4.6 mph - N/A   Clear
4:55 AM 66.2 °F - 64.4 °F 94% 30.04 in 10.0 mi SE 3.5 mph - N/A   Clear
5:15 AM 64.4 °F - 62.6 °F 94% 30.04 in 10.0 mi SE 4.6 mph - N/A   Clear
5:35 AM 64.4 °F - 62.6 °F 94% 30.04 in 10.0 mi SE 3.5 mph - N/A   Clear
5:55 AM 64.4 °F - 62.6 °F 94% 30.03 in 10.0 mi SE 3.5 mph - N/A   Clear
6:15 AM 64.4 °F - 62.6 °F 94% 30.03 in 10.0 mi SSE 3.5 mph - N/A   Clear
6:35 AM 64.4 °F - 62.6 °F 94% 30.04 in 10.0 mi SE 3.5 mph - N/A   Clear
6:55 AM 64.4 °F - 62.6 °F 94% 30.04 in 10.0 mi SE 3.5 mph - N/A   Clear
7:15 AM 64.4 °F - 62.6 °F 94% 30.03 in 10.0 mi Calm Calm - N/A   Clear
7:35 AM 64.4 °F - 62.6 °F 94% 30.03 in 10.0 mi SE 3.5 mph - N/A   Clear
7:55 AM 64.4 °F - 62.6 °F 94% 30.03 in 10.0 mi SE 3.5 mph - N/A   Clear
8:15 AM 66.2 °F - 62.6 °F 88% 30.03 in 10.0 mi SE 4.6 mph - N/A   Clear
8:35 AM 68.0 °F - 62.6 °F 83% 30.02 in 10.0 mi SSE 5.8 mph - N/A   Clear
8:55 AM 69.8 °F - 62.6 °F 78% 30.01 in 10.0 mi SSE 8.1 mph - N/A   Clear
9:15 AM 71.6 °F - 62.6 °F 73% 30.00 in 10.0 mi SSE 9.2 mph 16.1 mph N/A   Clear
9:35 AM 73.4 °F - 62.6 °F 69% 30.01 in 10.0 mi SSE 11.5 mph 16.1 mph N/A   Clear
9:55 AM 73.4 °F - 64.4 °F 73% 30.01 in 10.0 mi South 8.1 mph 19.6 mph N/A   Clear
10:15 AM 75.2 °F - 64.4 °F 69% 30.01 in 10.0 mi SSE 10.4 mph 18.4 mph N/A   Clear
10:35 AM 77.0 °F - 62.6 °F 61% 30.00 in 10.0 mi SSE 12.7 mph 19.6 mph N/A   Scattered Clouds
10:55 AM 77.0 °F - 62.6 °F 61% 29.99 in 10.0 mi SSE 5.8 mph 17.3 mph N/A   Scattered Clouds
11:15 AM 78.8 °F - 62.6 °F 57% 29.99 in 10.0 mi SE 10.4 mph 16.1 mph N/A   Clear
11:35 AM 78.8 °F - 62.6 °F 57% 30.00 in 10.0 mi SSE 11.5 mph 17.3 mph N/A   Clear
11:55 AM 80.6 °F 81.8 °F 62.6 °F 54% 29.98 in 10.0 mi South 8.1 mph 17.3 mph N/A   Clear
12:15 PM 80.6 °F 81.8 °F 62.6 °F 54% 29.97 in 10.0 mi South 6.9 mph - N/A   Clear
12:35 PM 80.6 °F 81.8 °F 62.6 °F 54% 29.95 in 10.0 mi South 6.9 mph - N/A   Clear
12:55 PM 82.4 °F 83.4 °F 62.6 °F 51% 29.96 in 10.0 mi South 8.1 mph - N/A   Scattered Clouds
1:15 PM 80.6 °F 82.3 °F 64.4 °F 58% 29.95 in 10.0 mi SW 5.8 mph - N/A   Scattered Clouds
1:35 PM 80.6 °F 82.3 °F 64.4 °F 58% 29.94 in 10.0 mi WSW 10.4 mph 20.7 mph N/A   Clear
1:55 PM 80.6 °F 82.3 °F 64.4 °F 58% 29.94 in 10.0 mi SSW 10.4 mph 18.4 mph N/A   Clear
2:15 PM 80.6 °F 82.3 °F 64.4 °F 58% 29.92 in 10.0 mi SSW 9.2 mph 16.1 mph N/A   Clear
2:35 PM 80.6 °F 81.8 °F 62.6 °F 54% 29.93 in 10.0 mi SSW 6.9 mph 18.4 mph N/A   Clear
2:55 PM 80.6 °F 81.8 °F 62.6 °F 54% 29.91 in 10.0 mi SW 9.2 mph 20.7 mph N/A   Clear
3:15 PM 80.6 °F 81.8 °F 62.6 °F 54% 29.91 in 10.0 mi SW 8.1 mph - N/A   Clear
3:35 PM 80.6 °F 82.3 °F 64.4 °F 58% 29.91 in 10.0 mi SSW 8.1 mph - N/A   Clear
3:55 PM 80.6 °F 82.3 °F 64.4 °F 58% 29.90 in 10.0 mi SW 9.2 mph - N/A   Clear
4:15 PM 78.8 °F - 64.4 °F 61% 29.89 in 10.0 mi SSW 6.9 mph - N/A   Clear
4:35 PM 78.8 °F - 64.4 °F 61% 29.90 in 10.0 mi SSW 6.9 mph - N/A   Clear
4:55 PM 78.8 °F - 64.4 °F 61% 29.89 in 10.0 mi South 4.6 mph - N/A   Clear
5:15 PM 78.8 °F - 62.6 °F 57% 29.88 in 10.0 mi South 9.2 mph 17.3 mph N/A   Clear
5:35 PM 77.0 °F - 62.6 °F 61% 29.89 in 10.0 mi South 3.5 mph - N/A   Clear
5:55 PM 77.0 °F - 62.6 °F 61% 29.89 in 10.0 mi South 5.8 mph - N/A   Clear
6:15 PM 75.2 °F - 62.6 °F 65% 29.89 in 10.0 mi South 8.1 mph - N/A   Clear
6:35 PM 73.4 °F - 62.6 °F 69% 29.89 in 10.0 mi South 5.8 mph - N/A   Clear
6:55 PM 73.4 °F - 62.6 °F 69% 29.88 in 10.0 mi South 6.9 mph - N/A   Clear
7:15 PM 73.4 °F - 62.6 °F 69% 29.88 in 10.0 mi South 10.4 mph 20.7 mph N/A   Clear
7:35 PM 71.6 °F - 64.4 °F 78% 29.88 in 10.0 mi South 6.9 mph - N/A   Scattered Clouds
7:55 PM 71.6 °F - 64.4 °F 78% 29.88 in 10.0 mi South 5.8 mph - N/A   Scattered Clouds
8:15 PM 71.6 °F - 64.4 °F 78% 29.88 in 10.0 mi South 8.1 mph 16.1 mph N/A   Mostly Cloudy
8:35 PM 71.6 °F - 64.4 °F 78% 29.88 in 10.0 mi South 5.8 mph - N/A   Mostly Cloudy
8:55 PM 71.6 °F - 62.6 °F 73% 29.88 in 10.0 mi South 5.8 mph - N/A   Scattered Clouds
9:15 PM 71.6 °F - 62.6 °F 73% 29.89 in 10.0 mi South 5.8 mph - N/A   Scattered Clouds
9:35 PM 71.6 °F - 62.6 °F 73% 29.89 in 10.0 mi South 5.8 mph - N/A   Scattered Clouds
9:55 PM 71.6 °F - 62.6 °F 73% 29.89 in 10.0 mi South 4.6 mph - N/A   Overcast
10:15 PM 71.6 °F - 62.6 °F 73% 29.89 in 10.0 mi South 5.8 mph 17.3 mph N/A   Overcast
10:35 PM 71.6 °F - 62.6 °F 73% 29.88 in 10.0 mi SSW 8.1 mph 16.1 mph N/A   Overcast
10:55 PM 73.4 °F - 62.6 °F 69% 29.88 in 10.0 mi South 6.9 mph - N/A   Overcast
11:15 PM 64.4 °F - 60.8 °F 88% 29.95 in 5.0 mi WNW 20.7 mph 36.8 mph N/A Rain Light Rain
11:35 PM 59.0 °F - 57.2 °F 94% 29.97 in 7.0 mi WNW 11.5 mph 23.0 mph 0.01 in Rain Light Rain
11:55 PM 55.4 °F - 53.6 °F 94% 29.98 in 5.0 mi WNW 13.8 mph 23.0 mph 0.01 in   Heavy Drizzle